CW6739 Weather Reports


Display with metric or nautical units.
time (UTC)temp
F
wind
direction
speed
MPH
gust
MPH
rain 1hr
in
rain 24hr
in
rain mn
in
humidity
%
barometer
mb
20260503001154 56 134 5.0 16.0 0.00 0.00 0.00 44 1017.4
20260503000652 56 166 4.0 16.0 0.00 0.00 0.00 43 1017.1
20260503000149 56 146 4.0 8.0 0.00 0.00 0.00 44 1017.0
20260502235646 56 90 5.0 11.0 0.00 0.00 0.00 44 1016.9
20260502235144 56 123 3.0 14.0 0.00 0.00 0.00 44 1017.2
20260502234640 55 120 7.0 13.0 0.00 0.00 0.00 45 1016.9
20260502234137 56 154 4.0 16.0 0.00 0.00 0.00 45 1017.3
20260502233633 56 132 4.0 9.0 0.00 0.00 0.00 45 1017.0
20260502233130 56 74 3.0 16.0 0.00 0.00 0.00 44 1017.1
20260502232626 54 158 5.0 10.0 0.00 0.00 0.00 47 1016.9
20260502232123 54 135 3.0 12.0 0.00 0.00 0.00 46 1016.9
20260502231620 53 180 6.0 11.0 0.00 0.00 0.00 47 1016.6
20260502231118 54 121 3.0 21.0 0.00 0.00 0.00 46 1016.9
20260502230616 53 166 6.0 15.0 0.00 0.00 0.00 46 1016.6
20260502230114 54 101 3.0 9.0 0.00 0.00 0.00 44 1016.7
20260502225609 54 200 3.0 17.0 0.00 0.00 0.00 44 1016.6
20260502225107 56 345 3.0 14.0 0.00 0.00 0.00 42 1016.6
20260502224603 57 187 5.0 22.0 0.00 0.00 0.00 43 1016.6
20260502224100 56 198 6.0 14.0 0.00 0.00 0.00 44 1016.6
20260502223558 58 321 5.0 13.0 0.00 0.00 0.00 44 1016.6
20260502223056 57 164 5.0 17.0 0.00 0.00 0.00 43 1016.5
20260502222553 55 208 9.0 12.0 0.00 0.00 0.00 43 1016.5
20260502222049 55 174 8.0 16.0 0.00 0.00 0.00 45 1016.1
20260502221545 55 156 3.0 10.0 0.00 0.00 0.00 45 1016.1
20260502221042 55 157 5.0 11.0 0.00 0.00 0.00 46 1016.2
20260502220538 54 45 9.0 12.0 0.00 0.00 0.00 47 1016.1
20260502220035 54 121 7.0 9.0 0.00 0.00 0.00 46 1016.1
20260502215532 55 0 0.0 12.0 0.00 0.00 0.00 46 1016.1
20260502215029 54 138 7.0 15.0 0.00 0.00 0.00 46 1016.0
20260502214526 54 110 4.0 9.0 0.00 0.00 0.00 47 1015.8
20260502214024 55 177 2.0 17.0 0.00 0.00 0.00 47 1015.9
20260502213520 55 98 4.0 8.0 0.00 0.00 0.00 47 1015.9
20260502213018 53 158 4.0 13.0 0.00 0.00 0.00 48 1016.0
20260502212517 53 306 1.0 13.0 0.00 0.00 0.00 48 1016.0
20260502212014 53 163 6.0 12.0 0.00 0.00 0.00 49 1016.0
20260502211509 54 107 2.0 13.0 0.00 0.00 0.00 48 1016.0
20260502211007 55 149 10.0 12.0 0.00 0.00 0.00 48 1015.7
20260502210503 53 120 3.0 10.0 0.00 0.00 0.00 51 1016.1
20260502210001 53 24 6.0 11.0 0.00 0.00 0.00 51 1016.1
20260502205456 53 68 0.0 13.0 0.00 0.00 0.00 52 1016.0
20260502204954 51 180 2.0 12.0 0.00 0.00 0.00 55 1016.1
20260502204451 50 197 7.0 10.0 0.00 0.00 0.00 58 1016.1
20260502203949 50 162 2.0 5.0 0.00 0.00 0.00 60 1015.9
20260502203446 49 221 2.0 10.0 0.00 0.00 0.00 60 1016.1
20260502202942 49 174 1.0 4.0 0.00 0.00 0.00 64 1016.1
20260502202439 48 180 2.0 2.0 0.00 0.00 0.00 64 1016.1
20260502201937 49 207 3.0 4.0 0.00 0.00 0.00 64 1016.1
20260502201432 49 180 3.0 4.0 0.00 0.00 0.00 66 1016.1
20260502200930 48 186 3.0 4.0 0.00 0.00 0.00 66 1016.1
20260502200425 48 130 3.0 5.0 0.00 0.00 0.00 65 1016.0
20260502195923 48 196 2.0 4.0 0.00 0.00 0.00 66 1016.0
20260502195420 48 217 3.0 6.0 0.00 0.00 0.00 66 1016.1
20260502194916 48 175 2.0 2.0 0.00 0.00 0.00 67 1016.1
20260502194414 47 194 3.0 6.0 0.00 0.00 0.00 69 1015.9
20260502193909 48 169 3.0 3.0 0.00 0.00 0.00 69 1015.7
20260502193407 47 48 2.0 3.0 0.00 0.00 0.00 69 1015.6
20260502192901 45 50 3.0 4.0 0.00 0.00 0.00 72 1015.7
20260502192359 45 73 2.0 4.0 0.00 0.00 0.00 73 1015.7
20260502191856 45 35 1.0 3.0 0.00 0.00 0.00 74 1015.4
20260502191354 45 0 2.0 4.0 0.00 0.00 0.00 74 1015.5
20260502190851 45 111 0.0 2.0 0.00 0.00 0.00 74 1015.5
20260502190348 45 352 2.0 3.0 0.00 0.00 0.00 73 1015.5
20260502185844 44 3 2.0 3.0 0.00 0.00 0.00 75 1015.4
20260502185340 44 187 5.0 5.0 0.00 0.00 0.00 76 1015.4
20260502184837 44 313 3.0 3.0 0.00 0.00 0.00 76 1015.3
20260502184332 44 8 2.0 3.0 0.00 0.00 0.00 76 1015.4
20260502183829 44 277 0.0 3.0 0.00 0.00 0.00 75 1015.2
20260502183326 44 278 0.0 1.0 0.00 0.00 0.00 75 1014.9
20260502182820 43 350 0.0 4.0 0.00 0.00 0.00 76 1015.0
20260502182316 44 131 1.0 2.0 0.00 0.00 0.00 76 1014.8
20260502181813 43 270 1.0 3.0 0.00 0.00 0.00 77 1014.8
20260502181312 43 13 3.0 3.0 0.00 0.00 0.00 77 1014.8
20260502180809 43 215 1.0 2.0 0.00 0.00 0.00 77 1014.6
20260502180307 43 220 1.0 3.0 0.00 0.00 0.00 77 1014.7
20260502170226 42 18 0.0 2.0 0.00 0.00 0.00 79 1013.5
20260502164207 41 280 2.0 4.0 0.00 0.00 0.00 81 1013.5
20260502163702 41 297 2.0 7.0 0.00 0.00 0.00 82 1013.7
20260502163159 41 318 3.0 5.0 0.00 0.00 0.00 82 1013.5
20260502162656 41 330 3.0 5.0 0.00 0.00 0.00 81 1013.8
20260502162153 41 334 0.0 4.0 0.00 0.00 0.00 82 1013.3
20260502161650 41 261 4.0 6.0 0.00 0.00 0.00 81 1013.5
20260502161146 41 4 4.0 4.0 0.00 0.00 0.00 81 1013.5
20260502160645 41 347 3.0 5.0 0.00 0.00 0.00 81 1013.5
20260502160143 41 15 0.0 5.0 0.00 0.00 0.00 81 1013.4
20260502152103 41 230 2.0 6.0 0.00 0.00 0.00 77 1012.5
20260502151600 41 350 2.0 5.0 0.00 0.00 0.00 77 1012.4
20260502151057 41 210 2.0 7.0 0.00 0.00 0.00 76 1012.2
20260502150555 41 225 3.0 7.0 0.00 0.00 0.00 76 1012.1
20260502130440 44 125 6.0 7.0 0.00 0.00 0.00 59 1009.5
20260502123422 43 210 2.0 4.0 0.00 0.00 0.00 67 1009.5
20260502122920 43 183 2.0 3.0 0.00 0.00 0.00 66 1009.6
20260502122416 43 155 3.0 5.0 0.00 0.00 0.00 66 1009.3
20260502121914 43 117 2.0 6.0 0.00 0.00 0.00 65 1009.5
20260502121411 43 192 1.0 7.0 0.00 0.00 0.00 63 1009.5
20260502120908 43 132 0.0 5.0 0.00 0.00 0.00 61 1009.3
20260502120404 43 189 4.0 5.0 0.00 0.00 0.00 62 1009.2
20260502115902 43 135 2.0 3.0 0.00 0.00 0.00 65 1009.4
20260502115359 43 195 4.0 5.0 0.00 0.00 0.00 66 1009.2
20260502114855 43 159 2.0 3.0 0.00 0.00 0.00 66 1009.4
20260502114352 43 180 0.0 2.0 0.00 0.00 0.00 65 1009.0
20260502113849 43 197 3.0 5.0 0.00 0.00 0.00 63 1009.2
20260502113346 44 180 2.0 5.0 0.00 0.00 0.00 57 1009.3
20260502112845 44 201 3.0 6.0 0.00 0.00 0.00 58 1009.0
20260502112342 44 163 4.0 14.0 0.00 0.00 0.00 57 1009.1
20260502111839 45 194 4.0 11.0 0.00 0.00 0.00 57 1008.9
20260502111336 45 170 5.0 11.0 0.00 0.00 0.00 57 1008.9
20260502110834 44 187 5.0 17.0 0.00 0.00 0.00 57 1008.8
20260502110332 44 156 7.0 9.0 0.00 0.00 0.00 59 1008.5
20260502105829 44 154 3.0 5.0 0.00 0.00 0.00 59 1008.3
20260502105326 44 179 5.0 12.0 0.00 0.00 0.00 58 1008.4
20260502104824 44 208 5.0 11.0 0.00 0.00 0.00 59 1008.2
20260502104321 44 160 5.0 10.0 0.00 0.00 0.00 59 1008.1
20260502103818 44 124 5.0 7.0 0.00 0.00 0.00 59 1008.1
20260502103315 44 161 4.0 11.0 0.00 0.00 0.00 60 1007.7
20260502102813 43 170 4.0 12.0 0.00 0.00 0.00 61 1007.9
20260502102308 43 94 3.0 12.0 0.00 0.00 0.00 61 1007.7
20260502101807 43 155 3.0 8.0 0.00 0.00 0.00 62 1007.5
20260502101304 43 152 8.0 9.0 0.00 0.00 0.00 63 1007.5
20260502100803 43 146 6.0 11.0 0.00 0.00 0.00 63 1007.5
20260502100302 43 270 1.0 9.0 0.00 0.00 0.00 63 1007.5
20260502091235 41 286 2.0 12.0 0.00 0.00 0.00 70 1006.4
20260502090732 41 105 5.0 12.0 0.00 0.00 0.00 71 1006.1
20260502090229 41 126 3.0 15.0 0.00 0.00 0.00 72 1006.1
20260502071130 41 154 6.0 12.0 0.00 0.00 0.00 75 1004.6
20260502070628 41 52 7.0 25.0 0.00 0.00 0.00 75 1004.5
20260502070126 41 110 7.0 15.0 0.00 0.00 0.00 75 1004.6
20260502065624 41 92 5.0 13.0 0.00 0.00 0.00 76 1004.5
20260502065121 41 68 3.0 18.0 0.00 0.00 0.00 75 1004.4
20260502064620 41 10 0.0 25.0 0.00 0.00 0.00 75 1004.4
20260502064116 41 55 4.0 27.0 0.00 0.00 0.00 75 1004.1
20260502063614 41 108 7.0 19.0 0.00 0.00 0.00 74 1004.2
20260502063111 41 121 5.0 16.0 0.00 0.00 0.00 75 1004.1
20260502062608 41 181 5.0 19.0 0.00 0.00 0.00 73 1004.1
20260502062106 41 114 1.0 15.0 0.00 0.00 0.00 74 1003.9
20260502061604 41 65 4.0 13.0 0.00 0.00 0.00 74 1003.7
20260502061101 42 42 3.0 29.0 0.00 0.00 0.00 73 1003.6
20260502060556 42 220 1.0 21.0 0.00 0.00 0.00 73 1003.7
20260502060053 41 102 6.0 15.0 0.00 0.00 0.00 73 1003.6
20260502055551 41 146 4.0 16.0 0.00 0.00 0.00 74 1003.3
20260502055049 41 154 4.0 24.0 0.00 0.00 0.00 75 1003.2
20260502054548 41 146 5.0 11.0 0.00 0.00 0.00 76 1002.9
20260502054044 41 164 9.0 16.0 0.00 0.00 0.00 75 1003.0
20260502053541 41 129 9.0 17.0 0.00 0.00 0.00 74 1002.9
20260502053039 41 270 5.0 13.0 0.00 0.00 0.00 76 1002.9
20260502052537 41 90 3.0 17.0 0.00 0.00 0.00 75 1002.8
20260502052035 41 96 3.0 26.0 0.00 0.00 0.00 75 1002.7
20260502051533 41 158 15.0 18.0 0.00 0.00 0.00 76 1002.7
20260502051030 41 155 10.0 13.0 0.00 0.00 0.00 76 1003.0
20260502050526 41 180 3.0 22.0 0.00 0.00 0.00 75 1002.7
20260502050024 42 141 17.0 27.0 0.00 0.00 0.00 74 1002.8
20260502045520 41 84 6.0 16.0 0.00 0.00 0.00 76 1002.8
20260502045017 41 123 3.0 18.0 0.00 0.00 0.00 75 1002.9
20260502044514 41 118 10.0 18.0 0.00 0.00 0.00 75 1002.8
20260502044010 41 41 4.0 13.0 0.00 0.00 0.00 74 1002.3
20260502043508 42 147 5.0 24.0 0.00 0.00 0.00 74 1002.2
20260502043004 41 130 8.0 15.0 0.00 0.00 0.00 74 1002.1
20260502042459 42 104 3.0 20.0 0.00 0.00 0.00 75 1002.0
20260502041957 41 88 5.0 21.0 0.00 0.00 0.00 75 1002.2
20260502041455 42 94 5.0 14.0 0.00 0.00 0.00 73 1002.0
20260502040951 42 134 6.0 16.0 0.00 0.00 0.00 73 1001.9
20260502040448 42 126 5.0 15.0 0.00 0.00 0.00 74 1001.8
20260502035944 42 158 0.0 10.0 0.00 0.00 0.00 74 1001.7
20260502035440 42 137 3.0 19.0 0.00 0.00 0.00 74 1001.6
20260502034938 42 120 4.0 17.0 0.00 0.00 0.00 74 1001.6
20260502034437 42 332 5.0 9.0 0.00 0.00 0.00 75 1001.5
20260502033935 42 150 6.0 19.0 0.00 0.00 0.00 73 1001.5
20260502033432 42 65 6.0 14.0 0.00 0.00 0.00 74 1001.5
20260502032928 42 142 5.0 16.0 0.00 0.00 0.00 74 1001.2
20260502032425 42 74 7.0 13.0 0.00 0.00 0.00 74 1001.6
20260502031922 42 83 5.0 15.0 0.00 0.00 0.00 74 1001.6
20260502031421 42 130 7.0 14.0 0.00 0.00 0.00 75 1001.8
20260502030919 42 43 4.0 11.0 0.00 0.00 0.00 75 1001.8
20260502030416 42 150 6.0 14.0 0.00 0.00 0.00 73 1002.2
20260502025914 42 48 3.0 18.0 0.00 0.00 0.00 72 1002.0
20260502025411 43 335 5.0 10.0 0.00 0.00 0.00 72 1002.1
20260502024909 43 125 4.0 14.0 0.00 0.00 0.00 72 1002.2
20260502024407 43 184 5.0 11.0 0.00 0.00 0.00 70 1002.2
20260502023904 43 144 9.0 19.0 0.00 0.00 0.00 70 1002.0
20260502023401 43 146 6.0 15.0 0.00 0.00 0.00 71 1001.7
20260502022859 43 129 6.0 13.0 0.00 0.00 0.00 70 1002.0
20260502022355 43 170 5.0 12.0 0.00 0.00 0.00 70 1001.9
20260502021852 43 129 5.0 11.0 0.00 0.00 0.00 71 1001.9
20260502021349 43 152 4.0 14.0 0.00 0.00 0.00 71 1002.1
20260502020847 43 83 4.0 13.0 0.00 0.00 0.00 71 1002.0
20260502020344 43 184 4.0 12.0 0.00 0.00 0.00 70 1001.9
20260502015841 43 180 2.0 14.0 0.00 0.00 0.00 70 1002.1
20260502015338 43 138 7.0 15.0 0.00 0.00 0.00 70 1002.4
20260502014835 43 30 2.0 12.0 0.00 0.00 0.00 69 1002.4
20260502014333 43 150 5.0 16.0 0.00 0.00 0.00 68 1002.3
20260502013828 43 125 4.0 19.0 0.00 0.00 0.00 69 1002.8
20260502013324 44 172 4.0 13.0 0.00 0.00 0.00 68 1002.2
20260502012821 44 309 2.0 13.0 0.00 0.00 0.00 67 1001.8
20260502012319 43 142 18.0 22.0 0.00 0.00 0.00 67 1001.8
20260502011816 44 90 0.0 20.0 0.00 0.00 0.00 66 1002.0
20260502011312 44 105 3.0 11.0 0.00 0.00 0.00 65 1002.4
20260502010809 44 11 6.0 15.0 0.00 0.00 0.00 65 1001.8
20260502010305 44 192 5.0 16.0 0.00 0.00 0.00 64 1001.8
20260502005802 44 105 11.0 22.0 0.00 0.00 0.00 64 1001.9
20260502005301 44 15 2.0 19.0 0.00 0.00 0.00 64 1001.9
20260502004757 44 198 7.0 13.0 0.00 0.00 0.00 62 1002.1
20260502004253 44 138 5.0 12.0 0.00 0.00 0.00 62 1002.2
20260502003751 45 77 3.0 19.0 0.00 0.00 0.00 61 1002.0
20260502003248 45 194 5.0 16.0 0.00 0.00 0.00 61 1002.1
20260502002744 45 66 5.0 22.0 0.00 0.00 0.00 61 1002.3
20260502002242 45 70 5.0 26.0 0.00 0.00 0.00 61 1002.1
20260502001738 45 114 5.0 20.0 0.00 0.00 0.00 59 1002.5